This is the latest recevied weather packets stored in our database for station/object N0MPM-4. If no packets are shown the sender has not sent any weather packets the latest 10 day(s).
| Time | Temp. | Humidity | Pressure | Rain* | Wind** | Luminosity | Snow |
|---|---|---|---|---|---|---|---|
| 1778100874 | 12.78° C | 33% | 1017.5 hPa | 0 mm | - | - | - |
| 1778100574 | 12.78° C | 33% | 1017.5 hPa | 0 mm | - | - | - |
| 1778100275 | 12.78° C | 34% | 1017.5 hPa | 0 mm | - | - | - |
| 1778099974 | 12.78° C | 32% | 1017.7 hPa | 0 mm | - | - | - |
| 1778099674 | 12.78° C | 36% | 1017.6 hPa | 0 mm | - | - | - |
| 1778099374 | 12.78° C | 35% | 1017.7 hPa | 0 mm | - | - | - |
| 1778099074 | 12.22° C | 37% | 1017.7 hPa | 0 mm | - | - | - |
| 1778098774 | 11.67° C | 36% | 1017.7 hPa | 0 mm | - | - | - |
| 1778098474 | 12.22° C | 35% | 1017.8 hPa | 0 mm | - | - | - |
| 1778098174 | 12.22° C | 36% | 1018 hPa | 0 mm | - | - | - |
| 1778097874 | 12.22° C | 35% | 1017.9 hPa | 0 mm | - | - | - |
| 1778097575 | 12.78° C | 37% | 1018 hPa | 0 mm | - | - | - |
| 1778097275 | 12.22° C | 33% | 1018 hPa | 0 mm | - | - | - |
| 1778096975 | 12.22° C | 40% | 1018 hPa | 0 mm | - | - | - |
| 1778096675 | 12.22° C | 36% | 1018.1 hPa | 0 mm | - | - | - |
| 1778096375 | 11.67° C | 40% | 1018.1 hPa | 0 mm | - | - | - |
| 1778096075 | 11.67° C | 37% | 1018.1 hPa | 0 mm | - | - | - |
| 1778095775 | 11.67° C | 36% | 1018.1 hPa | 0 mm | - | - | - |
| 1778095475 | 12.22° C | 39% | 1018.1 hPa | 0 mm | - | - | - |
| 1778095175 | 11.67° C | 36% | 1018.1 hPa | 0 mm | - | - | - |
| 1778094875 | 11.67° C | 40% | 1018 hPa | 0 mm | - | - | - |
| 1778094575 | 11.11° C | 38% | 1018 hPa | 0 mm | - | - | - |
| 1778094275 | 11.67° C | 38% | 1018.2 hPa | 0 mm | - | - | - |
| 1778093975 | 11.67° C | 38% | 1018.2 hPa | 0 mm | - | - | - |
| 1778093675 | 11.67° C | 35% | 1018.2 hPa | 0 mm | - | - | - |
* Rain latest hour (hover to see other rain measurements)
** Current wind speed in m/s (hover to see current wind gust speed)